| time (UTC) | temp F | wind direction | speed MPH | gust MPH | rain 1hr in | rain 24hr in | rain mn in | humidity % | barometer mb |
| 20260506002503 | 64 | 218 | 3.0 | 7.0 | 0.00 | 0.00 | 0.00 | 38 | 1018.0 |
| 20260506001503 | 64 | 248 | 4.0 | 10.0 | 0.00 | 0.00 | 0.00 | 38 | 1018.0 |
| 20260506000503 | 64 | 217 | 5.0 | 9.0 | 0.00 | 0.00 | 0.00 | 38 | 1018.0 |
| 20260506000004 | 64 | 240 | 6.0 | 10.0 | 0.00 | 0.00 | 0.00 | 39 | 1018.1 |
| 20260505235503 | 64 | 256 | 7.0 | 12.0 | 0.00 | 0.00 | 0.00 | 39 | 1018.1 |
| 20260505235003 | 64 | 241 | 3.0 | 9.0 | 0.00 | 0.00 | 0.00 | 39 | 1018.1 |
| 20260505234503 | 64 | 219 | 4.0 | 9.0 | 0.00 | 0.00 | 0.00 | 39 | 1018.0 |
| 20260505234004 | 64 | 206 | 3.0 | 7.0 | 0.00 | 0.00 | 0.00 | 38 | 1018.0 |
| 20260505233005 | 64 | 189 | 3.0 | 9.0 | 0.00 | 0.00 | 0.00 | 38 | 1018.0 |
| 20260505232504 | 64 | 209 | 3.0 | 12.0 | 0.00 | 0.00 | 0.00 | 38 | 1018.0 |
| 20260505232004 | 64 | 2 | 1.0 | 6.0 | 0.00 | 0.00 | 0.00 | 39 | 1018.1 |
| 20260505231504 | 63 | 149 | 1.0 | 3.0 | 0.00 | 0.00 | 0.00 | 39 | 1018.0 |
| 20260505231004 | 63 | 146 | 2.0 | 7.0 | 0.00 | 0.00 | 0.00 | 39 | 1018.0 |
| 20260505230504 | 63 | 171 | 2.0 | 7.0 | 0.00 | 0.00 | 0.00 | 39 | 1018.0 |
| 20260505230004 | 64 | 218 | 3.0 | 8.0 | 0.00 | 0.00 | 0.00 | 38 | 1018.0 |
| 20260505225504 | 64 | 187 | 1.0 | 5.0 | 0.00 | 0.00 | 0.00 | 39 | 1018.2 |
| 20260505225003 | 64 | 200 | 1.0 | 5.0 | 0.00 | 0.00 | 0.00 | 38 | 1018.1 |
| 20260505224504 | 64 | 239 | 3.0 | 6.0 | 0.00 | 0.00 | 0.00 | 37 | 1018.2 |
| 20260505224004 | 64 | 223 | 2.0 | 12.0 | 0.00 | 0.00 | 0.00 | 38 | 1018.2 |
| 20260505223505 | 64 | 173 | 1.0 | 6.0 | 0.00 | 0.00 | 0.00 | 37 | 1018.3 |
| 20260505223003 | 65 | 188 | 3.0 | 9.0 | 0.00 | 0.00 | 0.00 | 37 | 1018.3 |
| 20260505222503 | 65 | 216 | 4.0 | 7.0 | 0.00 | 0.00 | 0.00 | 37 | 1018.3 |
| 20260505222004 | 65 | 295 | 4.0 | 10.0 | 0.00 | 0.00 | 0.00 | 37 | 1018.2 |
| 20260505221004 | 64 | 187 | 1.0 | 7.0 | 0.00 | 0.00 | 0.00 | 38 | 1018.4 |
| 20260505220504 | 63 | 232 | 4.0 | 10.0 | 0.00 | 0.00 | 0.00 | 38 | 1018.5 |
| 20260505220003 | 63 | 243 | 3.0 | 7.0 | 0.00 | 0.00 | 0.00 | 38 | 1018.5 |
| 20260505215504 | 63 | 151 | 5.0 | 8.0 | 0.00 | 0.00 | 0.00 | 38 | 1018.5 |
| 20260505215003 | 63 | 14 | 1.0 | 5.0 | 0.00 | 0.00 | 0.00 | 39 | 1018.5 |
| 20260505214503 | 62 | 53 | 1.0 | 5.0 | 0.00 | 0.00 | 0.00 | 40 | 1018.6 |
| 20260505214003 | 62 | 192 | 2.0 | 7.0 | 0.00 | 0.00 | 0.00 | 40 | 1018.7 |
| 20260505213005 | 62 | 151 | 3.0 | 9.0 | 0.00 | 0.00 | 0.00 | 40 | 1018.9 |
| 20260505212503 | 62 | 192 | 3.0 | 9.0 | 0.00 | 0.00 | 0.00 | 41 | 1018.9 |
| 20260505211004 | 62 | 276 | 1.0 | 6.0 | 0.00 | 0.00 | 0.00 | 40 | 1019.1 |
| 20260505210504 | 62 | 297 | 3.0 | 12.0 | 0.00 | 0.00 | 0.00 | 40 | 1019.0 |
| 20260505210004 | 62 | 192 | 3.0 | 12.0 | 0.00 | 0.00 | 0.00 | 40 | 1019.1 |
| 20260505205503 | 63 | 144 | 1.0 | 8.0 | 0.00 | 0.00 | 0.00 | 41 | 1019.1 |
| 20260505205004 | 62 | 154 | 3.0 | 8.0 | 0.00 | 0.00 | 0.00 | 41 | 1019.0 |
| 20260505204003 | 62 | 237 | 5.0 | 8.0 | 0.00 | 0.00 | 0.00 | 41 | 1018.9 |
| 20260505203504 | 61 | 271 | 1.0 | 7.0 | 0.00 | 0.00 | 0.00 | 42 | 1018.9 |
| 20260505203003 | 61 | 278 | 6.0 | 9.0 | 0.00 | 0.00 | 0.00 | 42 | 1018.8 |
| 20260505202503 | 61 | 247 | 3.0 | 7.0 | 0.00 | 0.00 | 0.00 | 42 | 1019.1 |
| 20260505202004 | 61 | 187 | 4.0 | 7.0 | 0.00 | 0.00 | 0.00 | 43 | 1019.2 |
| 20260505201004 | 61 | 271 | 1.0 | 7.0 | 0.00 | 0.00 | 0.00 | 42 | 1019.3 |
| 20260505200504 | 60 | 243 | 0.0 | 3.0 | 0.00 | 0.00 | 0.00 | 42 | 1019.3 |
| 20260505195504 | 60 | 248 | 0.0 | 7.0 | 0.00 | 0.00 | 0.00 | 42 | 1019.4 |
| 20260505195004 | 61 | 332 | 2.0 | 5.0 | 0.00 | 0.00 | 0.00 | 42 | 1019.4 |
| 20260505194504 | 60 | 358 | 2.0 | 6.0 | 0.00 | 0.00 | 0.00 | 43 | 1019.6 |
| 20260505194003 | 60 | 16 | 2.0 | 3.0 | 0.00 | 0.00 | 0.00 | 43 | 1019.6 |
| 20260505193503 | 60 | 258 | 6.0 | 10.0 | 0.00 | 0.00 | 0.00 | 42 | 1019.5 |
| 20260505193004 | 61 | 298 | 5.0 | 12.0 | 0.00 | 0.00 | 0.00 | 42 | 1019.3 |
| 20260505192504 | 61 | 144 | 2.0 | 12.0 | 0.00 | 0.00 | 0.00 | 42 | 1019.5 |
| 20260505192003 | 61 | 29 | 2.0 | 5.0 | 0.00 | 0.00 | 0.00 | 43 | 1019.5 |
| 20260505191504 | 60 | 319 | 2.0 | 8.0 | 0.00 | 0.00 | 0.00 | 44 | 1019.5 |
| 20260505191004 | 61 | 12 | 5.0 | 9.0 | 0.00 | 0.00 | 0.00 | 43 | 1019.6 |
| 20260505190504 | 61 | 11 | 5.0 | 12.0 | 0.00 | 0.00 | 0.00 | 43 | 1019.5 |
| 20260505190004 | 62 | 12 | 5.0 | 12.0 | 0.00 | 0.00 | 0.00 | 42 | 1019.4 |
| 20260505185503 | 62 | 323 | 4.0 | 8.0 | 0.00 | 0.00 | 0.00 | 42 | 1019.5 |
| 20260505185004 | 62 | 317 | 3.0 | 9.0 | 0.00 | 0.00 | 0.00 | 41 | 1019.5 |
| 20260505184503 | 63 | 29 | 1.0 | 5.0 | 0.00 | 0.00 | 0.00 | 37 | 1019.5 |
| 20260505184003 | 62 | 27 | 0.0 | 2.0 | 0.00 | 0.00 | 0.00 | 37 | 1019.4 |
| 20260505183504 | 62 | 9 | 1.0 | 3.0 | 0.00 | 0.00 | 0.00 | 38 | 1019.4 |
| 20260505183004 | 62 | 79 | 2.0 | 6.0 | 0.00 | 0.00 | 0.00 | 38 | 1019.4 |
| 20260505182504 | 62 | 140 | 0.0 | 3.0 | 0.00 | 0.00 | 0.00 | 39 | 1019.4 |
| 20260505182004 | 62 | 139 | 2.0 | 3.0 | 0.00 | 0.00 | 0.00 | 39 | 1019.4 |
| 20260505181504 | 61 | 116 | 1.0 | 3.0 | 0.00 | 0.00 | 0.00 | 40 | 1019.4 |
| 20260505181004 | 61 | 110 | 2.0 | 9.0 | 0.00 | 0.00 | 0.00 | 41 | 1019.4 |
| 20260505180504 | 60 | 8 | 3.0 | 7.0 | 0.00 | 0.00 | 0.00 | 42 | 1019.3 |
| 20260505180003 | 59 | 79 | 2.0 | 6.0 | 0.00 | 0.00 | 0.00 | 42 | 1019.3 |
| 20260505175504 | 59 | 92 | 2.0 | 5.0 | 0.00 | 0.00 | 0.00 | 43 | 1019.3 |
| 20260505175004 | 59 | 6 | 4.0 | 7.0 | 0.00 | 0.00 | 0.00 | 41 | 1019.2 |
| 20260505174504 | 60 | 16 | 4.0 | 8.0 | 0.00 | 0.00 | 0.00 | 41 | 1019.1 |
| 20260505174003 | 60 | 353 | 2.0 | 5.0 | 0.00 | 0.00 | 0.00 | 41 | 1019.1 |
| 20260505173505 | 61 | 13 | 1.0 | 3.0 | 0.00 | 0.00 | 0.00 | 40 | 1019.1 |
| 20260505173004 | 61 | 32 | 5.0 | 8.0 | 0.00 | 0.00 | 0.00 | 39 | 1019.1 |
| 20260505172003 | 61 | 81 | 3.0 | 7.0 | 0.00 | 0.00 | 0.00 | 41 | 1019.0 |
| 20260505171504 | 60 | 104 | 3.0 | 7.0 | 0.00 | 0.00 | 0.00 | 42 | 1019.0 |
| 20260505171003 | 60 | 93 | 3.0 | 6.0 | 0.00 | 0.00 | 0.00 | 42 | 1019.0 |
| 20260505170004 | 59 | 32 | 2.0 | 5.0 | 0.00 | 0.00 | 0.00 | 43 | 1019.1 |
| 20260505165503 | 58 | 41 | 2.0 | 5.0 | 0.00 | 0.00 | 0.00 | 44 | 1019.0 |
| 20260505165003 | 58 | 106 | 1.0 | 3.0 | 0.00 | 0.00 | 0.00 | 43 | 1019.0 |
| 20260505164504 | 58 | 104 | 1.0 | 3.0 | 0.00 | 0.00 | 0.00 | 43 | 1019.0 |
| 20260505163504 | 59 | 129 | 1.0 | 5.0 | 0.00 | 0.00 | 0.00 | 42 | 1019.0 |
| 20260505163003 | 59 | 133 | 1.0 | 7.0 | 0.00 | 0.00 | 0.00 | 42 | 1019.0 |
| 20260505162504 | 59 | 101 | 1.0 | 3.0 | 0.00 | 0.00 | 0.00 | 44 | 1018.9 |
| 20260505161503 | 58 | 104 | 1.0 | 7.0 | 0.00 | 0.00 | 0.00 | 44 | 1018.8 |
| 20260505161004 | 58 | 83 | 2.0 | 3.0 | 0.00 | 0.00 | 0.00 | 45 | 1018.7 |
| 20260505160504 | 58 | 86 | 1.0 | 3.0 | 0.00 | 0.00 | 0.00 | 45 | 1018.5 |
| 20260505153003 | 57 | 113 | 0.0 | 2.0 | 0.00 | 0.00 | 0.00 | 46 | 1018.5 |
| 20260505152504 | 56 | 115 | 1.0 | 3.0 | 0.00 | 0.00 | 0.00 | 47 | 1018.4 |
| 20260505152003 | 56 | 116 | 1.0 | 3.0 | 0.00 | 0.00 | 0.00 | 48 | 1018.5 |
| 20260505151503 | 56 | 137 | 3.0 | 8.0 | 0.00 | 0.00 | 0.00 | 49 | 1018.3 |
| 20260505150504 | 55 | 139 | 5.0 | 8.0 | 0.00 | 0.00 | 0.00 | 49 | 1018.3 |
| 20260505140503 | 49 | 215 | 0.0 | 0.0 | 0.00 | 0.00 | 0.00 | 54 | 1018.0 |
| 20260505124504 | 43 | 245 | 0.0 | 0.0 | 0.00 | 0.00 | 0.00 | 63 | 1017.6 |
| 20260505124003 | 44 | 245 | 0.0 | 0.0 | 0.00 | 0.00 | 0.00 | 62 | 1017.6 |
| 20260505123504 | 44 | 245 | 0.0 | 1.0 | 0.00 | 0.00 | 0.00 | 61 | 1017.6 |
| 20260505123003 | 44 | 245 | 1.0 | 3.0 | 0.00 | 0.00 | 0.00 | 61 | 1017.6 |
| 20260505122503 | 45 | 242 | 2.0 | 3.0 | 0.00 | 0.00 | 0.00 | 60 | 1017.7 |
| 20260505122003 | 45 | 236 | 2.0 | 5.0 | 0.00 | 0.00 | 0.00 | 61 | 1017.6 |
| 20260505121503 | 45 | 235 | 2.0 | 3.0 | 0.00 | 0.00 | 0.00 | 60 | 1017.6 |
| 20260505121003 | 44 | 234 | 2.0 | 3.0 | 0.00 | 0.00 | 0.00 | 60 | 1017.6 |
| 20260505120504 | 44 | 233 | 2.0 | 5.0 | 0.00 | 0.00 | 0.00 | 60 | 1017.5 |
| 20260505120005 | 43 | 233 | 2.0 | 5.0 | 0.00 | 0.00 | 0.00 | 62 | 1017.6 |
| 20260505115504 | 43 | 235 | 0.0 | 2.0 | 0.00 | 0.00 | 0.00 | 65 | 1017.5 |
| 20260505115004 | 42 | 211 | 0.0 | 0.0 | 0.00 | 0.00 | 0.00 | 65 | 1017.5 |
| 20260505114504 | 41 | 211 | 0.0 | 0.0 | 0.00 | 0.00 | 0.00 | 64 | 1017.5 |
| 20260505114003 | 42 | 211 | 0.0 | 0.0 | 0.00 | 0.00 | 0.00 | 64 | 1017.6 |
| 20260505113503 | 42 | 211 | 0.0 | 0.0 | 0.00 | 0.00 | 0.00 | 63 | 1017.4 |
| 20260505112503 | 42 | 211 | 0.0 | 1.0 | 0.00 | 0.00 | 0.00 | 64 | 1017.5 |
| 20260505112005 | 42 | 211 | 0.0 | 0.0 | 0.00 | 0.00 | 0.00 | 63 | 1017.5 |
| 20260505111503 | 42 | 211 | 0.0 | 0.0 | 0.00 | 0.00 | 0.00 | 63 | 1017.4 |
| 20260505110504 | 42 | 211 | 0.0 | 0.0 | 0.00 | 0.00 | 0.00 | 64 | 1017.4 |
| 20260505102003 | 44 | 232 | 0.0 | 0.0 | 0.00 | 0.00 | 0.00 | 60 | 1017.5 |
| 20260505101504 | 44 | 232 | 0.0 | 1.0 | 0.00 | 0.00 | 0.00 | 61 | 1017.5 |
| 20260505101003 | 45 | 232 | 0.0 | 2.0 | 0.00 | 0.00 | 0.00 | 60 | 1017.6 |
| 20260505100003 | 44 | 237 | 2.0 | 3.0 | 0.00 | 0.00 | 0.00 | 61 | 1017.6 |
| 20260505095504 | 44 | 262 | 1.0 | 2.0 | 0.00 | 0.00 | 0.00 | 63 | 1017.5 |
| 20260505095005 | 44 | 297 | 1.0 | 3.0 | 0.00 | 0.00 | 0.00 | 62 | 1017.6 |
| 20260505094004 | 45 | 214 | 1.0 | 2.0 | 0.00 | 0.00 | 0.00 | 63 | 1017.6 |
| 20260505093505 | 45 | 236 | 0.0 | 0.0 | 0.00 | 0.00 | 0.00 | 62 | 1017.9 |
| 20260505092004 | 45 | 246 | 1.0 | 3.0 | 0.00 | 0.00 | 0.00 | 62 | 1017.9 |
| 20260505091504 | 46 | 221 | 1.0 | 2.0 | 0.00 | 0.00 | 0.00 | 61 | 1017.9 |
| 20260505091003 | 47 | 224 | 1.0 | 2.0 | 0.00 | 0.00 | 0.00 | 60 | 1017.9 |
| 20260505090004 | 47 | 232 | 2.0 | 5.0 | 0.00 | 0.00 | 0.00 | 61 | 1017.9 |
| 20260505085003 | 48 | 236 | 3.0 | 8.0 | 0.00 | 0.00 | 0.00 | 61 | 1018.0 |
| 20260505084503 | 48 | 216 | 2.0 | 5.0 | 0.00 | 0.00 | 0.00 | 62 | 1018.0 |
| 20260505084004 | 47 | 222 | 3.0 | 5.0 | 0.00 | 0.00 | 0.00 | 62 | 1018.0 |
| 20260505083504 | 47 | 229 | 2.0 | 3.0 | 0.00 | 0.00 | 0.00 | 62 | 1018.0 |
| 20260505083004 | 47 | 229 | 2.0 | 3.0 | 0.00 | 0.00 | 0.00 | 62 | 1018.0 |
| 20260505082503 | 47 | 229 | 2.0 | 3.0 | 0.00 | 0.00 | 0.00 | 62 | 1018.1 |
| 20260505082004 | 47 | 231 | 2.0 | 3.0 | 0.00 | 0.00 | 0.00 | 62 | 1018.1 |
| 20260505081504 | 47 | 236 | 1.0 | 3.0 | 0.00 | 0.00 | 0.00 | 62 | 1018.1 |
| 20260505081003 | 47 | 236 | 0.0 | 3.0 | 0.00 | 0.00 | 0.00 | 61 | 1018.4 |
| 20260505080004 | 48 | 230 | 2.0 | 3.0 | 0.00 | 0.00 | 0.00 | 60 | 1018.5 |
| 20260505075504 | 48 | 241 | 1.0 | 5.0 | 0.00 | 0.00 | 0.00 | 58 | 1018.5 |
| 20260505074505 | 48 | 229 | 1.0 | 5.0 | 0.00 | 0.00 | 0.00 | 60 | 1018.4 |
| 20260505074004 | 48 | 225 | 2.0 | 3.0 | 0.00 | 0.00 | 0.00 | 60 | 1018.4 |
| 20260505073503 | 48 | 240 | 2.0 | 3.0 | 0.00 | 0.00 | 0.00 | 60 | 1018.4 |
| 20260505072503 | 49 | 255 | 2.0 | 3.0 | 0.00 | 0.00 | 0.00 | 59 | 1018.4 |
| 20260505072004 | 49 | 245 | 2.0 | 3.0 | 0.00 | 0.00 | 0.00 | 58 | 1018.4 |
| 20260505071504 | 49 | 231 | 2.0 | 3.0 | 0.00 | 0.00 | 0.00 | 58 | 1018.4 |
| 20260505070504 | 50 | 237 | 3.0 | 5.0 | 0.00 | 0.00 | 0.00 | 57 | 1018.4 |
| 20260505070004 | 50 | 232 | 3.0 | 6.0 | 0.00 | 0.00 | 0.00 | 58 | 1018.4 |
| 20260505064004 | 50 | 234 | 2.0 | 5.0 | 0.00 | 0.00 | 0.00 | 55 | 1018.4 |
| 20260505063004 | 51 | 233 | 2.0 | 6.0 | 0.00 | 0.00 | 0.00 | 55 | 1018.3 |
| 20260505062503 | 51 | 224 | 3.0 | 6.0 | 0.00 | 0.00 | 0.00 | 54 | 1018.3 |
| 20260505062004 | 51 | 223 | 3.0 | 6.0 | 0.00 | 0.00 | 0.00 | 54 | 1018.5 |
| 20260505061503 | 51 | 230 | 2.0 | 3.0 | 0.00 | 0.00 | 0.00 | 54 | 1018.6 |
| 20260505061004 | 51 | 228 | 3.0 | 6.0 | 0.00 | 0.00 | 0.00 | 54 | 1018.5 |
| 20260505055504 | 52 | 220 | 3.0 | 6.0 | 0.00 | 0.00 | 0.00 | 53 | 1018.5 |
| 20260505055004 | 52 | 220 | 3.0 | 6.0 | 0.00 | 0.00 | 0.00 | 52 | 1018.6 |
| 20260505054504 | 52 | 217 | 2.0 | 5.0 | 0.00 | 0.00 | 0.00 | 52 | 1018.6 |
| 20260505054003 | 52 | 209 | 4.0 | 7.0 | 0.00 | 0.00 | 0.00 | 51 | 1018.7 |
| 20260505053504 | 52 | 218 | 3.0 | 7.0 | 0.00 | 0.00 | 0.00 | 51 | 1018.5 |
| 20260505053003 | 52 | 221 | 3.0 | 6.0 | 0.00 | 0.00 | 0.00 | 50 | 1018.5 |
| 20260505052504 | 52 | 216 | 3.0 | 6.0 | 0.00 | 0.00 | 0.00 | 49 | 1018.6 |
| 20260505052004 | 53 | 215 | 3.0 | 7.0 | 0.00 | 0.00 | 0.00 | 48 | 1018.5 |
| 20260505051504 | 53 | 218 | 3.0 | 12.0 | 0.00 | 0.00 | 0.00 | 48 | 1018.5 |
| 20260505051004 | 53 | 229 | 4.0 | 9.0 | 0.00 | 0.00 | 0.00 | 48 | 1018.6 |
| 20260505050503 | 53 | 225 | 3.0 | 7.0 | 0.00 | 0.00 | 0.00 | 48 | 1018.6 |
| 20260505041504 | 54 | 227 | 5.0 | 9.0 | 0.00 | 0.00 | 0.00 | 46 | 1018.2 |
| 20260505041005 | 54 | 223 | 5.0 | 13.0 | 0.00 | 0.00 | 0.00 | 46 | 1018.1 |
| 20260505040504 | 54 | 198 | 7.0 | 13.0 | 0.00 | 0.00 | 0.00 | 46 | 1018.1 |
| 20260505040005 | 54 | 222 | 7.0 | 13.0 | 0.00 | 0.00 | 0.00 | 46 | 1017.9 |
| 20260505035504 | 54 | 210 | 8.0 | 13.0 | 0.00 | 0.00 | 0.00 | 46 | 1017.9 |
| 20260505035004 | 54 | 216 | 6.0 | 12.0 | 0.00 | 0.00 | 0.00 | 46 | 1018.0 |
| 20260505034504 | 54 | 215 | 10.0 | 14.0 | 0.00 | 0.00 | 0.00 | 46 | 1017.9 |
| 20260505034004 | 54 | 203 | 9.0 | 13.0 | 0.00 | 0.00 | 0.00 | 47 | 1018.0 |
| 20260505033504 | 55 | 204 | 7.0 | 13.0 | 0.00 | 0.00 | 0.00 | 47 | 1018.0 |
| 20260505033004 | 55 | 218 | 7.0 | 13.0 | 0.00 | 0.00 | 0.00 | 47 | 1017.8 |
| 20260505032504 | 55 | 210 | 9.0 | 14.0 | 0.00 | 0.00 | 0.00 | 47 | 1017.6 |
| 20260505032004 | 55 | 210 | 10.0 | 14.0 | 0.00 | 0.00 | 0.00 | 47 | 1017.6 |
| 20260505031504 | 55 | 218 | 9.0 | 15.0 | 0.00 | 0.00 | 0.00 | 47 | 1017.7 |
| 20260505031003 | 55 | 214 | 9.0 | 14.0 | 0.00 | 0.00 | 0.00 | 48 | 1017.7 |
| 20260505030504 | 55 | 208 | 12.0 | 16.0 | 0.00 | 0.00 | 0.00 | 49 | 1017.7 |
| 20260505030004 | 55 | 208 | 10.0 | 16.0 | 0.00 | 0.00 | 0.00 | 49 | 1017.8 |
| 20260505025504 | 55 | 222 | 10.0 | 15.0 | 0.00 | 0.00 | 0.00 | 50 | 1017.7 |
| 20260505025005 | 56 | 218 | 9.0 | 14.0 | 0.00 | 0.00 | 0.00 | 51 | 1017.6 |
| 20260505024503 | 56 | 218 | 10.0 | 15.0 | 0.00 | 0.00 | 0.00 | 52 | 1017.6 |
| 20260505024004 | 56 | 222 | 9.0 | 16.0 | 0.00 | 0.00 | 0.00 | 51 | 1017.5 |
| 20260505022503 | 57 | 222 | 7.0 | 14.0 | 0.00 | 0.00 | 0.00 | 46 | 1017.6 |
| 20260505022004 | 58 | 214 | 9.0 | 16.0 | 0.00 | 0.00 | 0.00 | 45 | 1017.7 |
| 20260505021503 | 58 | 221 | 9.0 | 16.0 | 0.00 | 0.00 | 0.00 | 44 | 1017.4 |
| 20260505021004 | 59 | 216 | 9.0 | 13.0 | 0.00 | 0.00 | 0.00 | 43 | 1017.4 |
| 20260505020504 | 59 | 223 | 7.0 | 16.0 | 0.00 | 0.00 | 0.00 | 42 | 1017.3 |
| 20260505020004 | 59 | 214 | 8.0 | 13.0 | 0.00 | 0.00 | 0.00 | 42 | 1017.5 |
| 20260505015504 | 60 | 226 | 6.0 | 13.0 | 0.00 | 0.00 | 0.00 | 41 | 1017.5 |
| 20260505015004 | 60 | 211 | 9.0 | 14.0 | 0.00 | 0.00 | 0.00 | 40 | 1017.4 |
| 20260505014004 | 61 | 226 | 7.0 | 14.0 | 0.00 | 0.00 | 0.00 | 40 | 1017.4 |
| 20260505013505 | 61 | 208 | 13.0 | 16.0 | 0.00 | 0.00 | 0.00 | 39 | 1017.3 |
| 20260505013004 | 61 | 199 | 12.0 | 18.0 | 0.00 | 0.00 | 0.00 | 39 | 1017.4 |
| 20260505012504 | 62 | 209 | 10.0 | 16.0 | 0.00 | 0.00 | 0.00 | 39 | 1017.3 |
| 20260505012004 | 62 | 205 | 9.0 | 16.0 | 0.00 | 0.00 | 0.00 | 39 | 1017.2 |
| 20260505011504 | 62 | 208 | 10.0 | 17.0 | 0.00 | 0.00 | 0.00 | 39 | 1017.4 |
| 20260505011004 | 62 | 208 | 10.0 | 21.0 | 0.00 | 0.00 | 0.00 | 38 | 1017.3 |
| 20260505010504 | 63 | 197 | 11.0 | 21.0 | 0.00 | 0.00 | 0.00 | 38 | 1017.4 |
| 20260505010005 | 63 | 212 | 13.0 | 20.0 | 0.00 | 0.00 | 0.00 | 37 | 1017.3 |
| 20260505005504 | 64 | 217 | 10.0 | 16.0 | 0.00 | 0.00 | 0.00 | 36 | 1017.2 |
| 20260505005004 | 64 | 225 | 12.0 | 17.0 | 0.00 | 0.00 | 0.00 | 36 | 1017.3 |
| 20260505004504 | 64 | 217 | 10.0 | 18.0 | 0.00 | 0.00 | 0.00 | 36 | 1017.3 |
| 20260505004004 | 65 | 207 | 12.0 | 16.0 | 0.00 | 0.00 | 0.00 | 36 | 1017.2 |
| 20260505003504 | 65 | 213 | 12.0 | 17.0 | 0.00 | 0.00 | 0.00 | 35 | 1017.3 |
| 20260505003004 | 65 | 211 | 10.0 | 18.0 | 0.00 | 0.00 | 0.00 | 35 | 1017.3 |